Nome, AK

10:59 PM AKST on February 20, 2018 (GMT -0900)
Nome

Weather History for PAOM - March, 2013

Change the Weather History Date:

Monday, March 18, 2013

  Actual Average Record
Temperature  
Mean Temperature 11 °F 10 °F  
Max Temperature 24 °F 18 °F 36 °F (1998)
Min Temperature -2 °F 2 °F -37 °F (1975)
Degree Days  
Heating Degree Days 54 55  
Month to date heating degree days 908 997  
Since 1 July heating degree days 10449 10276  
Cooling Degree Days 0 0  
Month to date cooling degree days 0 0  
Year to date cooling degree days 0 0  
Moisture  
Dew Point 5 °F    
Average Humidity 0    
Maximum Humidity 0    
Minimum Humidity 0    
Precipitation  
Precipitation 0.00 in 0.02 in 0.41 in (1993)
Month to date precipitation 0.58 0.40  
Year to date precipitation 2.10 2.27  
Snow  
Snow 0.00 in 0.30 in 4.10 in (1993)
Month to date snowfall 8.0 5.6  
Since 1 July snowfall 49.3 62.3  
Snow Depth 30.00 in    
Sea Level Pressure  
Sea Level Pressure 30.38 in    
Wind  
Wind Speed 7 mph (NNW)    
Max Wind Speed 23 mph    
Max Gust Speed 29 mph    
Visibility 10 miles    
Events      
T = Trace of Precipitation, MM = Missing Value Source: NWS Daily Summary

Daily Weather History Graph

Daily Weather History Graph

Search for Another Location

Airport or City:

Trip Planner

Search our weather history database for the weather conditions in past years. The results will help you decide how hot, cold, wet, or windy it might be!

Date:

Astronomy

Mar. 18, 2013 Rise Set
Actual Time 9:07 AM AKDT 9:13 PM AKDT
Civil Twilight 8:19 AM AKDT 10:01 PM AKDT
Nautical Twilight 7:21 AM AKDT 11:00 PM AKDT
Astronomical Twilight 6:14 AM AKDT 12:07 AM AKDT
Moon 11:02 AM AKDT (3/18) 5:36 AM AKDT (3/18)
Length of Visible Light 13h 42m
Length of Day
12h 05m
Waxing Crescent, 42% of the Moon is Illuminated
Mar 18
Waxing Crescent
Mar 19
First Quarter
Mar 27
Full
Apr 2
Last Quarter
Apr 10
New

Hourly Weather History & Observations

Time (AKDT) Temp. Windchill Dew Point Humidity Pressure Visibility Wind Dir Wind Speed Gust Speed Precip Events Conditions
12:53 AM 10.9 °F - 8.1 °F 88% 30.36 in 10.0 mi Calm Calm - N/A   Clear
1:53 AM 10.0 °F - 7.0 °F 87% 30.38 in 10.0 mi Calm Calm - N/A   Clear
2:53 AM 3.9 °F - 1.9 °F 91% 30.38 in 10.0 mi Calm Calm - N/A   Partly Cloudy
3:53 AM 1.9 °F - 1.0 °F 96% 30.38 in 10.0 mi Calm Calm - N/A   Partly Cloudy
4:53 AM 1.9 °F - -0.9 °F 88% 30.38 in 10.0 mi Calm Calm - N/A   Partly Cloudy
5:53 AM 1.0 °F - -2.0 °F 87% 30.40 in 10.0 mi Calm Calm - N/A   Partly Cloudy
6:53 AM 3.9 °F - 1.9 °F 91% 30.39 in 10.0 mi Calm Calm - N/A   Partly Cloudy
7:53 AM 10.9 °F 2.9 °F 3.9 °F 73% 30.39 in 10.0 mi Variable 4.6 mph - N/A   Partly Cloudy
8:53 AM 16.0 °F 4.4 °F 7.0 °F 68% 30.38 in 10.0 mi NW 9.2 mph - N/A   Scattered Clouds
9:53 AM 15.1 °F 5.2 °F 5.0 °F 64% 30.39 in 10.0 mi NW 6.9 mph - N/A   Scattered Clouds
10:53 AM 18.0 °F 2.2 °F 8.1 °F 65% 30.36 in 10.0 mi WNW 18.4 mph 26.5 mph N/A   Scattered Clouds
11:53 AM 21.9 °F 10.4 °F 10.0 °F 60% 30.38 in 10.0 mi NW 11.5 mph 23.0 mph N/A   Scattered Clouds
12:53 PM 19.9 °F 6.7 °F 12.0 °F 71% 30.35 in 10.0 mi WNW 13.8 mph 26.5 mph N/A   Scattered Clouds
1:53 PM 21.0 °F 5.0 °F 9.0 °F 60% 30.36 in 10.0 mi NW 21.9 mph - N/A   Scattered Clouds
2:53 PM 19.9 °F 4.3 °F 8.1 °F 60% 30.36 in 10.0 mi NW 19.6 mph - N/A   Scattered Clouds
3:53 PM 23.0 °F 13.9 °F 8.1 °F 53% 30.35 in 10.0 mi North 8.1 mph - N/A   Scattered Clouds
4:53 PM 23.0 °F 12.4 °F 7.0 °F 50% 30.36 in 10.0 mi NW 10.4 mph - N/A   Scattered Clouds
5:53 PM 21.9 °F 13.4 °F 7.0 °F 53% 30.37 in 10.0 mi NNW 6.9 mph - N/A   Mostly Cloudy
6:53 PM 19.0 °F 13.9 °F 10.0 °F 68% 30.38 in 10.0 mi East 3.5 mph - N/A   Mostly Cloudy
7:53 PM 15.1 °F 3.3 °F 6.1 °F 68% 30.38 in 10.0 mi North 9.2 mph - N/A   Scattered Clouds
8:53 PM 12.0 °F 1.5 °F 3.9 °F 70% 30.38 in 10.0 mi NE 6.9 mph - N/A   Scattered Clouds
9:53 PM 14.0 °F 2.9 °F 3.0 °F 62% 30.39 in 10.0 mi NNE 8.1 mph - N/A   Mostly Cloudy
10:53 PM 12.0 °F 5.9 °F 7.0 °F 80% 30.41 in 10.0 mi South 3.5 mph - N/A   Mostly Cloudy
11:53 PM 15.1 °F 7.7 °F 1.9 °F 56% 30.41 in 10.0 mi North 4.6 mph - N/A   Mostly Cloudy